Tracking 19976 objects as of 15-Nov-2019
Live streaming from Space Station
objects crossing your sky now

NOAA 16 DEB

Track NOAA 16 DEB now!
10-day predictions


NORAD ID: 41518
Int'l Code: 2000-055MS
Perigee: 813.3 km
Apogee: 854.9 km
Inclination: 98.8 °
Period: 101.4 minutes
Semi major axis: 7205 km
RCS: Unknown
Launch date: September 21, 2000
Source: United States (US)
Launch site: AIR FORCE WESTERN TEST RANGE (AFWTR)

Note: This is SATELLITE DEBRIS
aabbcc
Your satellite tracking list
Your tracking list is empty




NASA's NSSDC Master Catalog

Two Line Element Set (TLE):
1 41518U 00055MS  19317.45284755 +.00001246 +00000-0 +61005-3 0  9998
2 41518 098.8484 040.5522 0028854 344.9732 015.0583 14.19520399184805
Source of the keplerian elements: AFSPC